| time (UTC) | temp C | wind direction | speed KPH | gust KPH | rain 1hr cm | rain 24hr cm | rain mn cm | humidity % | barometer mb |
| 20260508203050 | 8 | 341 | 3.2 | 8.0 | 0.00 | 0.25 | 0.00 | 86 | 1003.2 |
| 20260508201550 | 9 | 341 | 4.8 | 8.0 | 0.00 | 0.25 | 0.00 | 87 | 1003.2 |
| 20260508200048 | 8 | 341 | 4.8 | 9.7 | 0.00 | 0.25 | 0.00 | 88 | 1003.0 |
| 20260508194601 | 8 | 335 | 3.2 | 8.0 | 0.00 | 0.61 | 0.00 | 89 | 1003.1 |
| 20260508193101 | 8 | 335 | 6.4 | 8.0 | 0.00 | 0.61 | 0.00 | 90 | 1003.0 |
| 20260508191555 | 7 | 334 | 4.8 | 8.0 | 0.00 | 0.61 | 0.00 | 91 | 1002.9 |
| 20260508190103 | 7 | 334 | 3.2 | 6.4 | 0.00 | 0.61 | 0.00 | 91 | 1003.0 |
| 20260508184544 | 6 | 334 | 4.8 | 8.0 | 0.00 | 1.32 | 0.00 | 90 | 1002.9 |
| 20260508183045 | 7 | 334 | 4.8 | 9.7 | 0.00 | 1.32 | 0.00 | 89 | 1002.8 |
| 20260508181549 | 7 | 334 | 6.4 | 9.7 | 0.00 | 1.32 | 0.00 | 88 | 1002.9 |
| 20260508180043 | 9 | 336 | 6.4 | 9.7 | 0.00 | 1.32 | 0.00 | 88 | 1003.2 |
| 20260508174543 | 8 | 336 | 6.4 | 9.7 | 0.00 | 1.32 | 0.00 | 88 | 1003.5 |
| 20260508173041 | 8 | 334 | 6.4 | 9.7 | 0.00 | 1.32 | 0.00 | 89 | 1003.4 |
| 20260508171545 | 7 | 333 | 6.4 | 11.3 | 0.00 | 1.32 | 0.00 | 88 | 1003.4 |
| 20260508170043 | 9 | 354 | 6.4 | 11.3 | 0.00 | 1.32 | 0.00 | 89 | 1003.2 |
| 20260508164540 | 9 | 358 | 9.7 | 12.9 | 0.00 | 1.32 | 0.00 | 87 | 1003.0 |
| 20260508163053 | 10 | 336 | 6.4 | 9.7 | 0.00 | 1.32 | 0.00 | 88 | 1002.9 |
| 20260508161549 | 8 | 326 | 4.8 | 11.3 | 0.00 | 1.32 | 0.00 | 90 | 1002.8 |
| 20260508160034 | 8 | 319 | 6.4 | 9.7 | 0.00 | 1.32 | 0.00 | 89 | 1002.5 |
| 20260508154533 | 9 | 317 | 6.4 | 8.0 | 0.00 | 1.32 | 0.00 | 90 | 1002.9 |
| 20260508153050 | 9 | 317 | 6.4 | 8.0 | 0.00 | 1.32 | 0.00 | 89 | 1003.2 |
| 20260508151533 | 9 | 315 | 3.2 | 8.0 | 0.00 | 1.32 | 0.00 | 91 | 1003.2 |
| 20260508150029 | 8 | 313 | 6.4 | 9.7 | 0.00 | 1.32 | 0.00 | 91 | 1003.0 |
| 20260508144527 | 9 | 307 | 4.8 | 8.0 | 0.00 | 1.32 | 0.00 | 91 | 1003.4 |
| 20260508143032 | 9 | 307 | 3.2 | 8.0 | 0.00 | 1.32 | 0.00 | 93 | 1003.4 |
| 20260508141522 | 9 | 304 | 4.8 | 8.0 | 0.00 | 1.32 | 0.00 | 94 | 1003.6 |
| 20260508140017 | 8 | 303 | 3.2 | 8.0 | 0.00 | 1.32 | 0.00 | 95 | 1003.6 |
| 20260508134516 | 8 | 301 | 4.8 | 8.0 | 0.00 | 1.32 | 0.00 | 96 | 1003.6 |
| 20260508133011 | 8 | 299 | 4.8 | 8.0 | 0.00 | 1.32 | 0.00 | 97 | 1003.3 |
| 20260508131507 | 8 | 299 | 3.2 | 6.4 | 0.00 | 1.32 | 0.00 | 98 | 1003.2 |
| 20260508130004 | 7 | 299 | 3.2 | 6.4 | 0.00 | 1.32 | 0.00 | 98 | 1003.1 |
| 20260508124559 | 6 | 299 | 3.2 | 4.8 | 0.00 | 1.32 | 0.00 | 98 | 1003.3 |
| 20260508123055 | 6 | 299 | 1.6 | 3.2 | 0.00 | 1.32 | 0.00 | 98 | 1003.3 |
| 20260508121552 | 6 | 299 | 1.6 | 4.8 | 0.00 | 1.32 | 0.00 | 98 | 1003.3 |
| 20260508120058 | 5 | 298 | 1.6 | 6.4 | 0.00 | 1.32 | 0.00 | 98 | 1003.4 |
| 20260508114544 | 5 | 298 | 3.2 | 8.0 | 0.00 | 1.32 | 0.00 | 98 | 1003.4 |
| 20260508113044 | 5 | 299 | 3.2 | 8.0 | 0.00 | 1.32 | 0.00 | 98 | 1003.5 |
| 20260508111543 | 6 | 298 | 4.8 | 8.0 | 0.00 | 1.32 | 0.00 | 98 | 1003.8 |
| 20260508110038 | 6 | 96 | 0.0 | 3.2 | 0.00 | 1.32 | 0.00 | 99 | 1003.7 |
| 20260508104539 | 6 | 96 | 3.2 | 6.4 | 0.00 | 1.32 | 0.00 | 99 | 1003.7 |
| 20260508103045 | 5 | 93 | 3.2 | 4.8 | 0.00 | 1.32 | 0.00 | 98 | 1003.6 |
| 20260508101536 | 5 | 93 | 1.6 | 4.8 | 0.00 | 1.32 | 0.00 | 99 | 1003.4 |
| 20260508100048 | 5 | 93 | 6.4 | 8.0 | 0.00 | 1.32 | 0.00 | 98 | 1003.4 |
| 20260508094531 | 4 | 93 | 4.8 | 8.0 | 0.00 | 1.32 | 0.00 | 98 | 1003.0 |
| 20260508093035 | 3 | 91 | 3.2 | 8.0 | 0.00 | 1.32 | 0.00 | 98 | 1003.2 |
| 20260508091528 | 3 | 89 | 6.4 | 8.0 | 0.00 | 1.32 | 0.00 | 97 | 1002.9 |
| 20260508090026 | 4 | 88 | 4.8 | 6.4 | 0.00 | 1.32 | 0.00 | 98 | 1002.7 |
| 20260508084521 | 4 | 87 | 1.6 | 4.8 | 0.00 | 1.32 | 0.00 | 98 | 1002.5 |
| 20260508083021 | 4 | 87 | 4.8 | 8.0 | 0.00 | 1.32 | 0.00 | 98 | 1002.3 |
| 20260508081521 | 5 | 87 | 4.8 | 8.0 | 0.00 | 1.32 | 0.00 | 98 | 1002.2 |
| 20260508080023 | 5 | 86 | 3.2 | 8.0 | 0.00 | 1.32 | 0.00 | 98 | 1002.4 |
| 20260508074518 | 5 | 85 | 3.2 | 8.0 | 0.00 | 1.32 | 0.00 | 98 | 1002.5 |
| 20260508073017 | 5 | 84 | 6.4 | 9.7 | 0.00 | 1.32 | 0.00 | 97 | 1002.5 |
| 20260508071517 | 5 | 83 | 1.6 | 6.4 | 0.00 | 1.32 | 0.00 | 98 | 1002.7 |
| 20260508070015 | 5 | 82 | 0.0 | 3.2 | 0.00 | 1.32 | 0.00 | 98 | 1002.6 |
| 20260508064514 | 5 | 82 | 3.2 | 4.8 | 0.00 | 1.32 | 0.00 | 98 | 1002.3 |
| 20260508063014 | 5 | 82 | 3.2 | 8.0 | 0.00 | 1.32 | 0.00 | 98 | 1002.8 |
| 20260508061513 | 6 | 84 | 3.2 | 8.0 | 0.00 | 1.32 | 0.00 | 98 | 1002.6 |
| 20260508060021 | 5 | 87 | 4.8 | 8.0 | 0.00 | 1.32 | 0.00 | 98 | 1002.7 |
| 20260508054523 | 5 | 96 | 4.8 | 9.7 | 0.00 | 1.32 | 0.00 | 98 | 1002.8 |
| 20260508053011 | 5 | 334 | 1.6 | 6.4 | 0.00 | 1.32 | 0.00 | 98 | 1002.7 |
| 20260508051511 | 5 | 334 | 0.0 | 8.0 | 0.00 | 1.32 | 0.00 | 98 | 1002.6 |
| 20260508050009 | 4 | 334 | 0.0 | 8.0 | 0.00 | 1.32 | 0.00 | 97 | 1002.9 |
| 20260508044508 | 5 | 334 | 3.2 | 11.3 | 0.00 | 1.32 | 0.00 | 97 | 1002.9 |
| 20260508043005 | 5 | 17 | 8.0 | 17.7 | 0.00 | 1.32 | 0.00 | 97 | 1003.3 |
| 20260508041511 | 5 | 22 | 8.0 | 12.9 | 0.00 | 1.32 | 0.00 | 97 | 1003.0 |
| 20260508040005 | 5 | 26 | 8.0 | 12.9 | 0.00 | 1.32 | 0.00 | 97 | 1003.2 |
| 20260508034502 | 5 | 39 | 12.9 | 17.7 | 0.00 | 1.32 | 0.00 | 96 | 1003.0 |
| 20260508033100 | 5 | 352 | 19.3 | 29.0 | 0.00 | 1.32 | 0.00 | 96 | 1003.2 |
| 20260508031601 | 6 | 333 | 20.9 | 30.6 | 0.00 | 1.32 | 0.00 | 94 | 1003.0 |
| 20260508030059 | 9 | 22 | 0.0 | 9.7 | 0.00 | 1.32 | 0.00 | 96 | 1002.3 |
| 20260508024603 | 9 | 353 | 1.6 | 9.7 | 0.00 | 1.32 | 1.32 | 96 | 1002.6 |
| 20260508023051 | 9 | 352 | 4.8 | 12.9 | 0.00 | 1.32 | 1.32 | 96 | 1002.5 |
| 20260508021551 | 9 | 32 | 6.4 | 9.7 | 0.00 | 1.32 | 1.32 | 96 | 1002.8 |
| 20260508014552 | 9 | 31 | 4.8 | 9.7 | 0.00 | 1.32 | 1.32 | 96 | 1002.9 |
| 20260508013049 | 9 | 38 | 3.2 | 11.3 | 0.00 | 1.32 | 1.32 | 96 | 1002.8 |
| 20260508011552 | 8 | 348 | 4.8 | 8.0 | 0.00 | 1.32 | 1.32 | 96 | 1002.6 |
| 20260508010051 | 8 | 348 | 1.6 | 4.8 | 0.00 | 1.32 | 1.32 | 96 | 1003.0 |
| 20260508004549 | 8 | 348 | 1.6 | 9.7 | 0.00 | 1.32 | 1.32 | 95 | 1003.1 |
| 20260508003049 | 8 | 349 | 3.2 | 11.3 | 0.00 | 1.32 | 1.32 | 94 | 1003.0 |
| 20260508001547 | 9 | 344 | 6.4 | 12.9 | 0.00 | 1.32 | 1.32 | 93 | 1003.1 |
| 20260508000045 | 10 | 41 | 3.2 | 8.0 | 0.00 | 1.32 | 1.32 | 95 | 1002.7 |
| 20260507234546 | 9 | 43 | 1.6 | 6.4 | 0.00 | 1.32 | 1.32 | 94 | 1002.6 |
| 20260507233045 | 8 | 41 | 12.9 | 29.0 | 0.00 | 1.32 | 1.32 | 94 | 1002.3 |
| 20260507231546 | 8 | 335 | 16.1 | 33.8 | 0.00 | 1.32 | 1.32 | 87 | 1001.9 |
| 20260507230043 | 13 | 187 | 8.0 | 16.1 | 0.00 | 1.32 | 1.32 | 91 | 1001.5 |
| 20260507224540 | 13 | 157 | 14.5 | 22.5 | 0.00 | 1.32 | 1.32 | 91 | 1001.4 |
| 20260507223039 | 13 | 157 | 16.1 | 24.1 | 0.00 | 1.32 | 1.32 | 91 | 1001.4 |
| 20260507221538 | 13 | 180 | 16.1 | 32.2 | 0.00 | 1.32 | 1.32 | 91 | 1001.5 |
| 20260507220036 | 13 | 166 | 14.5 | 32.2 | 0.00 | 1.32 | 1.32 | 92 | 1001.3 |
| 20260507214638 | 13 | 194 | 29.0 | 41.8 | 0.00 | 1.32 | 1.32 | 91 | 1001.3 |
| 20260507213036 | 13 | 159 | 17.7 | 37.0 | 0.03 | 1.32 | 1.32 | 92 | 1001.3 |
| 20260507211540 | 12 | 209 | 24.1 | 35.4 | 0.10 | 1.32 | 1.32 | 95 | 1001.3 |
| 20260507210037 | 12 | 134 | 32.2 | 40.2 | 0.23 | 1.32 | 1.32 | 95 | 1001.3 |
| 20260507204635 | 12 | 170 | 27.4 | 57.9 | 0.36 | 1.32 | 1.32 | 94 | 1001.2 |